When you browse on this site, cookies collect data to enhance your experience and personalize the content and advertising you see.
Visit our Privacy Policy to learn more. By continuing to use the site, you agree to this use of cookies and data.
  • In Switzerland
  • List of Countries
  • For 7 days
  • Water Temperature
  • Satellite Maps
  • Weather Map
  • Weather Widgets
  • user-avatar
    Login

    Hourly Weather Zaranj

    Today, 19 June, Wednesday

    Time Temperature Precipitation Wind Pressure Humidity
    00:00 +33°C° 0 mm 5 mps 710 mmHg 18%
    01:00 +32°C° 0 mm 6 mps 710 mmHg 20%
    02:00 +32°C° 0 mm 6 mps 710 mmHg 20%
    03:00 +30°C° 0 mm 7 mps 710 mmHg 21%
    04:00 +30°C° 0 mm 7 mps 710 mmHg 21%
    05:00 +33°C° 0 mm 8 mps 710 mmHg 19%
    06:00 +34°C° 0 mm 10 mps 710 mmHg 16%
    07:00 +36°C° 0 mm 11 mps 711 mmHg 14%
    08:00 +38°C° 0 mm 11 mps 711 mmHg 12%
    09:00 +41°C° 0 mm 11 mps 711 mmHg 10%
    10:00 +43°C° 0 mm 12 mps 711 mmHg 8%
    11:00 +44°C° 0 mm 11 mps 711 mmHg 7%
    12:00 +46°C° 0 mm 11 mps 710 mmHg 7%
    13:00 +47°C° 0 mm 11 mps 710 mmHg 6%
    14:00 +48°C° 0 mm 11 mps 710 mmHg 6%
    15:00 +48°C° 0 mm 11 mps 709 mmHg 6%
    16:00 +48°C° 0 mm 10 mps 709 mmHg 6%
    17:00 +45°C° 0 mm 10 mps 709 mmHg 7%
    18:00 +43°C° 0 mm 9 mps 709 mmHg 8%
    19:00 +41°C° 0 mm 8 mps 709 mmHg 10%
    20:00 +39°C° 0 mm 8 mps 709 mmHg 11%
    21:00 +38°C° 0 mm 8 mps 709 mmHg 13%
    22:00 +37°C° 0 mm 8 mps 710 mmHg 15%
    23:00 +35°C° 0 mm 8 mps 709 mmHg 16%

    Tomorrow, 20 June, Thursday

    Time Temperature Precipitation Wind Pressure Humidity
    00:00 +34°C° 0 mm 8 mps 709 mmHg 18%
    01:00 +33°C° 0 mm 8 mps 709 mmHg 19%
    02:00 +33°C° 0 mm 8 mps 709 mmHg 19%
    03:00 +33°C° 0 mm 9 mps 710 mmHg 19%
    04:00 +33°C° 0 mm 9 mps 710 mmHg 19%
    05:00 +34°C° 0 mm 10 mps 710 mmHg 18%
    06:00 +36°C° 0 mm 11 mps 711 mmHg 16%
    07:00 +37°C° 0 mm 11 mps 711 mmHg 14%
    08:00 +39°C° 0 mm 11 mps 711 mmHg 12%
    09:00 +42°C° 0 mm 10 mps 711 mmHg 10%
    10:00 +45°C° 0 mm 10 mps 712 mmHg 7%
    11:00 +47°C° 0 mm 10 mps 711 mmHg 7%
    12:00 +48°C° 0 mm 10 mps 711 mmHg 6%
    13:00 +49°C° 0 mm 10 mps 711 mmHg 6%
    14:00 +49°C° 0 mm 10 mps 710 mmHg 6%
    15:00 +49°C° 0 mm 10 mps 710 mmHg 6%
    16:00 +49°C° 0 mm 10 mps 709 mmHg 6%
    17:00 +47°C° 0 mm 9 mps 709 mmHg 8%
    18:00 +44°C° 0 mm 8 mps 709 mmHg 9%
    19:00 +41°C° 0 mm 7 mps 709 mmHg 11%
    20:00 +40°C° 0 mm 7 mps 710 mmHg 12%
    21:00 +39°C° 0 mm 7 mps 710 mmHg 13%
    22:00 +36°C° 0 mm 7 mps 710 mmHg 14%
    23:00 +35°C° 0 mm 6 mps 710 mmHg 16%

    Day after tomorrow, 21 June, Friday

    Time Temperature Precipitation Wind Pressure Humidity
    00:00 +34°C° 0 mm 6 mps 710 mmHg 18%
    01:00 +33°C° 0 mm 6 mps 710 mmHg 19%
    02:00 +33°C° 0 mm 6 mps 710 mmHg 19%
    03:00 +33°C° 0 mm 6 mps 710 mmHg 19%
    04:00 +33°C° 0 mm 7 mps 710 mmHg 19%
    05:00 +34°C° 0 mm 7 mps 711 mmHg 17%
    06:00 +35°C° 0 mm 8 mps 712 mmHg 15%
    07:00 +37°C° 0 mm 9 mps 712 mmHg 13%
    08:00 +39°C° 0 mm 10 mps 712 mmHg 11%
    09:00 +43°C° 0 mm 10 mps 712 mmHg 10%
    10:00 +45°C° 0 mm 10 mps 713 mmHg 8%
    11:00 +47°C° 0 mm 10 mps 712 mmHg 7%
    12:00 +48°C° 0 mm 9 mps 712 mmHg 7%
    13:00 +50°C° 0 mm 9 mps 711 mmHg 6%
    14:00 +49°C° 0 mm 9 mps 711 mmHg 6%
    15:00 +49°C° 0 mm 9 mps 711 mmHg 6%
    16:00 +49°C° 0 mm 9 mps 710 mmHg 6%
    17:00 +46°C° 0 mm 8 mps 710 mmHg 8%
    18:00 +44°C° 0 mm 6 mps 710 mmHg 9%
    19:00 +41°C° 0 mm 5 mps 710 mmHg 11%
    20:00 +40°C° 0 mm 6 mps 710 mmHg 11%
    21:00 +39°C° 0 mm 6 mps 711 mmHg 11%
    22:00 +38°C° 0 mm 7 mps 711 mmHg 11%
    23:00 +36°C° 0 mm 7 mps 711 mmHg 13%

    22 June, Saturday

    Time Temperature Precipitation Wind Pressure Humidity
    00:00 +35°C° 0 mm 6 mps 711 mmHg 15%
    01:00 +34°C° 0 mm 6 mps 710 mmHg 17%
    02:00 +34°C° 0 mm 6 mps 711 mmHg 18%
    03:00 +33°C° 0 mm 6 mps 711 mmHg 19%
    04:00 +33°C° 0 mm 6 mps 711 mmHg 20%
    05:00 +34°C° 0 mm 7 mps 711 mmHg 17%
    06:00 +35°C° 0 mm 8 mps 712 mmHg 15%
    07:00 +38°C° 0 mm 9 mps 712 mmHg 13%
    08:00 +40°C° 0 mm 10 mps 712 mmHg 11%
    09:00 +43°C° 0 mm 10 mps 712 mmHg 10%
    10:00 +46°C° 0 mm 11 mps 713 mmHg 8%
    11:00 +47°C° 0 mm 11 mps 712 mmHg 7%
    12:00 +48°C° 0 mm 12 mps 712 mmHg 6%
    13:00 +49°C° 0 mm 12 mps 712 mmHg 5%
    14:00 +49°C° 0 mm 12 mps 711 mmHg 5%
    15:00 +50°C° 0 mm 13 mps 711 mmHg 5%
    16:00 +50°C° 0 mm 13 mps 710 mmHg 5%
    17:00 +47°C° 0 mm 12 mps 711 mmHg 6%
    18:00 +46°C° 0 mm 11 mps 711 mmHg 8%
    19:00 +43°C° 0 mm 10 mps 711 mmHg 9%
    20:00 +42°C° 0 mm 11 mps 711 mmHg 10%
    21:00 +39°C° 0 mm 11 mps 711 mmHg 11%
    22:00 +38°C° 0 mm 12 mps 712 mmHg 12%
    23:00 +38°C° 0 mm 12 mps 712 mmHg 12%

    23 June, Sunday

    Time Temperature Precipitation Wind Pressure Humidity
    00:00 +37°C° 0 mm 11 mps 711 mmHg 13%
    01:00 +36°C° 0 mm 11 mps 711 mmHg 14%
    02:00 +36°C° 0 mm 11 mps 711 mmHg 14%
    03:00 +34°C° 0 mm 12 mps 711 mmHg 15%
    04:00 +34°C° 0 mm 12 mps 711 mmHg 15%
    05:00 +36°C° 0 mm 14 mps 712 mmHg 14%
    06:00 +37°C° 0 mm 15 mps 712 mmHg 13%
    07:00 +37°C° 0 mm 16 mps 713 mmHg 12%
    08:00 +40°C° 0 mm 16 mps 713 mmHg 11%
    09:00 +42°C° 0 mm 16 mps 713 mmHg 10%
    10:00 +45°C° 0 mm 16 mps 713 mmHg 9%
    11:00 +46°C° 0 mm 16 mps 712 mmHg 8%
    12:00 +47°C° 0 mm 15 mps 712 mmHg 7%
    13:00 +49°C° 0 mm 15 mps 712 mmHg 7%
    14:00 +49°C° 0 mm 15 mps 711 mmHg 7%
    15:00 +49°C° 0 mm 15 mps 711 mmHg 7%
    16:00 +49°C° 0 mm 15 mps 710 mmHg 7%
    17:00 +46°C° 0 mm 15 mps 710 mmHg 8%
    18:00 +43°C° 0 mm 14 mps 711 mmHg 10%
    19:00 +41°C° 0 mm 13 mps 711 mmHg 11%
    20:00 +40°C° 0 mm 14 mps 711 mmHg 12%
    21:00 +38°C° 0 mm 15 mps 711 mmHg 12%
    22:00 +37°C° 0 mm 15 mps 711 mmHg 13%
    23:00 +36°C° 0 mm 15 mps 711 mmHg 14%

    24 June, Monday

    Time Temperature Precipitation Wind Pressure Humidity
    00:00 +36°C° 0 mm 16 mps 711 mmHg 14%
    01:00 +35°C° 0 mm 16 mps 711 mmHg 15%
    02:00 +33°C° 0 mm 16 mps 711 mmHg 14%
    03:00 +33°C° 0 mm 16 mps 711 mmHg 14%
    04:00 +33°C° 0 mm 16 mps 711 mmHg 14%
    05:00 +33°C° 0 mm 16 mps 711 mmHg 14%
    06:00 +35°C° 0 mm 17 mps 711 mmHg 13%
    07:00 +36°C° 0 mm 18 mps 712 mmHg 13%
    08:00 +37°C° 0 mm 18 mps 712 mmHg 11%
    09:00 +40°C° 0 mm 17 mps 712 mmHg 10%
    10:00 +42°C° 0 mm 17 mps 712 mmHg 8%
    11:00 +44°C° 0 mm 17 mps 712 mmHg 8%
    12:00 +45°C° 0 mm 17 mps 711 mmHg 7%
    13:00 +47°C° 0 mm 16 mps 711 mmHg 6%
    14:00 +46°C° 0 mm 16 mps 710 mmHg 6%
    15:00 +46°C° 0 mm 16 mps 710 mmHg 6%
    16:00 +46°C° 0 mm 15 mps 710 mmHg 7%
    17:00 +43°C° 0 mm 14 mps 710 mmHg 8%
    18:00 +42°C° 0 mm 12 mps 710 mmHg 10%
    19:00 +39°C° 0 mm 11 mps 710 mmHg 11%
    20:00 +38°C° 0 mm 11 mps 710 mmHg 12%
    21:00 +37°C° 0 mm 11 mps 711 mmHg 14%
    22:00 +34°C° 0 mm 11 mps 711 mmHg 15%
    23:00 +34°C° 0 mm 11 mps 711 mmHg 15%
    Show more